"Sample Date","Sample Time","Sample Value","Units","Flow Rate","Number Channels","Micron Size 0","Counts/Channel 0","Micron Size 1","Counts/Channel 1","Micron Size 2","Counts/Channel 2","Micron Size 3","Counts/Channel 3","Micron Size 4","Counts/Channel 4","Micron Size 5","Counts/Channel 5","Micron Size 6","Counts/Channel 6","Micron Size 7","Counts/Channel 7","Micron Size 8","Counts/Channel 8","Micron Size 9","Counts/Channel 9","Micron Size 10","Counts/Channel 10","Micron Size 11","Counts/Channel 11","Micron Size 12","Counts/Channel 12","Micron Size 13","Counts/Channel 13","Micron Size 14","Counts/Channel 14","Micron Size 15","Counts/Channel 15","Micron Size 16","Counts/Channel 16","Micron Size 17","Counts/Channel 17","Micron Size 18","Counts/Channel 18","Micron Size 19","Counts/Channel 19","Micron Size 20","Counts/Channel 20","Micron Size 21","Counts/Channel 21","Micron Size 22","Counts/Channel 22","Micron Size 23","Counts/Channel 23","Micron Size 24","Counts/Channel 24","Micron Size 25","Counts/Channel 25","Micron Size 26","Counts/Channel 26","Micron Size 27","Counts/Channel 27","Micron Size 28","Counts/Channel 28","Micron Size 29","Counts/Channel 29","Micron Size 30","Counts/Channel 30","Micron Size 31","Counts/Channel 31"
"05/09/08","17:00:00",2813.000,"cc",28324.180,6,0.100,2152.000,0.200,567.000,0.300,72.000,0.500,21.000,1.000,1.000,5.000,0
"05/09/08","17:00:06",2719.000,"cc",28290.025,6,0.100,2094.000,0.200,540.000,0.300,67.000,0.500,17.000,1.000,1.000,5.000,0
"05/09/08","17:00:12",3182.000,"cc",28330.035,6,0.100,2399.000,0.200,663.000,0.300,96.000,0.500,24.000,1.000,0,5.000,0
"05/09/08","17:00:18",2903.000,"cc",28338.014,6,0.100,2234.000,0.200,559.000,0.300,88.000,0.500,20.000,1.000,2.000,5.000,0
"05/09/08","17:00:24",2706.000,"cc",28298.984,6,0.100,2062.000,0.200,544.000,0.300,77.000,0.500,20.000,1.000,3.000,5.000,0
"05/09/08","17:00:30",2858.000,"cc",28316.430,6,0.100,2208.000,0.200,541.000,0.300,79.000,0.500,28.000,1.000,2.000,5.000,0
"05/09/08","17:00:36",2877.000,"cc",28329.033,6,0.100,2126.000,0.200,634.000,0.300,88.000,0.500,27.000,1.000,2.000,5.000,0
"05/09/08","17:00:42",2699.000,"cc",28280.465,6,0.100,2051.000,0.200,565.000,0.300,58.000,0.500,24.000,1.000,1.000,5.000,0
"05/09/08","17:00:48",2890.000,"cc",28339.922,6,0.100,2155.000,0.200,610.000,0.300,96.000,0.500,29.000,1.000,0,5.000,0
"05/09/08","17:00:54",2810.000,"cc",28344.965,6,0.100,2135.000,0.200,569.000,0.300,84.000,0.500,21.000,1.000,1.000,5.000,0
"05/09/08","17:01:00",2908.000,"cc",28291.160,6,0.100,2210.000,0.200,584.000,0.300,90.000,0.500,21.000,1.000,3.000,5.000,0
"05/09/08","17:01:06",2806.000,"cc",28307.096,6,0.100,2145.000,0.200,552.000,0.300,91.000,0.500,18.000,1.000,0,5.000,0
"05/09/08","17:01:12",2868.000,"cc",28336.201,6,0.100,2159.000,0.200,593.000,0.300,82.000,0.500,31.000,1.000,3.000,5.000,0
"05/09/08","17:01:18",2917.000,"cc",28315.932,6,0.100,2164.000,0.200,628.000,0.300,99.000,0.500,26.000,1.000,0,5.000,0
"05/09/08","17:01:24",2993.000,"cc",28336.147,6,0.100,2234.000,0.200,614.000,0.300,112.000,0.500,31.000,1.000,2.000,5.000,0
"05/09/08","17:01:30",2898.000,"cc",28333.074,6,0.100,2148.000,0.200,598.000,0.300,125.000,0.500,21.000,1.000,6.000,5.000,0
"05/09/08","17:01:36",2691.000,"cc",28274.697,6,0.100,2022.000,0.200,587.000,0.300,66.000,0.500,15.000,1.000,1.000,5.000,0
"05/09/08","17:01:42",2779.000,"cc",28336.508,6,0.100,2136.000,0.200,550.000,0.300,78.000,0.500,11.000,1.000,4.000,5.000,0
"05/09/08","17:01:48",2759.000,"cc",28283.998,6,0.100,2100.000,0.200,555.000,0.300,83.000,0.500,20.000,1.000,1.000,5.000,0
"05/09/08","17:01:54",4640.000,"cc",28342.397,6,0.100,3700.000,0.200,823.000,0.300,105.000,0.500,12.000,1.000,0,5.000,0
"05/09/08","17:02:00",3521.000,"cc",28311.834,6,0.100,2763.000,0.200,650.000,0.300,82.000,0.500,26.000,1.000,0,5.000,0
"05/09/08","17:02:06",3428.000,"cc",28306.303,6,0.100,2631.000,0.200,681.000,0.300,91.000,0.500,18.000,1.000,7.000,5.000,0
"05/09/08","17:02:12",3141.000,"cc",28333.268,6,0.100,2392.000,0.200,645.000,0.300,83.000,0.500,20.000,1.000,1.000,5.000,0
"05/09/08","17:02:18",3251.000,"cc",28315.272,6,0.100,2492.000,0.200,661.000,0.300,84.000,0.500,14.000,1.000,0,5.000,0
"05/09/08","17:02:24",3510.000,"cc",28326.490,6,0.100,2742.000,0.200,666.000,0.300,84.000,0.500,17.000,1.000,1.000,5.000,0
"05/09/08","17:02:30",3222.000,"cc",28276.365,6,0.100,2485.000,0.200,626.000,0.300,95.000,0.500,14.000,1.000,2.000,5.000,0
"05/09/08","17:02:36",3532.000,"cc",28313.512,6,0.100,2762.000,0.200,668.000,0.300,77.000,0.500,19.000,1.000,6.000,5.000,0
"05/09/08","17:02:42",2841.000,"cc",28348.604,6,0.100,2198.000,0.200,538.000,0.300,84.000,0.500,21.000,1.000,0,5.000,0
"05/09/08","17:02:48",2875.000,"cc",28369.383,6,0.100,2168.000,0.200,597.000,0.300,81.000,0.500,27.000,1.000,2.000,5.000,0
"05/09/08","17:02:54",2789.000,"cc",28271.725,6,0.100,2092.000,0.200,585.000,0.300,90.000,0.500,22.000,1.000,0,5.000,0
"05/09/08","17:03:00",2973.000,"cc",28289.361,6,0.100,2245.000,0.200,616.000,0.300,86.000,0.500,24.000,1.000,2.000,5.000,0
"05/09/08","17:03:06",3342.000,"cc",28395.113,6,0.100,2565.000,0.200,634.000,0.300,115.000,0.500,26.000,1.000,2.000,5.000,0
"05/09/08","17:03:12",3041.000,"cc",28295.865,6,0.100,2313.000,0.200,593.000,0.300,103.000,0.500,30.000,1.000,2.000,5.000,0
"05/09/08","17:03:18",2811.000,"cc",28333.193,6,0.100,2137.000,0.200,568.000,0.300,88.000,0.500,17.000,1.000,1.000,5.000,0
"05/09/08","17:03:24",3012.000,"cc",28298.701,6,0.100,2301.000,0.200,596.000,0.300,95.000,0.500,19.000,1.000,1.000,5.000,0
"05/09/08","17:03:30",3143.000,"cc",28191.510,6,0.100,2480.000,0.200,569.000,0.300,73.000,0.500,20.000,1.000,1.000,5.000,0
"05/09/08","17:03:36",3231.000,"cc",28282.748,6,0.100,2537.000,0.200,594.000,0.300,79.000,0.500,19.000,1.000,2.000,5.000,0
"05/09/08","17:03:42",3207.000,"cc",28372.635,6,0.100,2487.000,0.200,624.000,0.300,80.000,0.500,15.000,1.000,1.000,5.000,0
"05/09/08","17:03:48",3330.000,"cc",28370.934,6,0.100,2593.000,0.200,620.000,0.300,100.000,0.500,16.000,1.000,1.000,5.000,0
"05/09/08","17:03:54",2894.000,"cc",28320.629,6,0.100,2242.000,0.200,553.000,0.300,75.000,0.500,23.000,1.000,1.000,5.000,0
"05/09/08","17:04:00",2975.000,"cc",28375.557,6,0.100,2275.000,0.200,591.000,0.300,89.000,0.500,19.000,1.000,1.000,5.000,0
"05/09/08","17:04:06",3001.000,"cc",28298.531,6,0.100,2274.000,0.200,608.000,0.300,93.000,0.500,23.000,1.000,3.000,5.000,0
"05/09/08","17:04:12",2932.000,"cc",28235.604,6,0.100,2252.000,0.200,558.000,0.300,100.000,0.500,15.000,1.000,7.000,5.000,0
"05/09/08","17:04:18",2641.000,"cc",28328.424,6,0.100,2038.000,0.200,524.000,0.300,59.000,0.500,20.000,1.000,0,5.000,0
"05/09/08","17:04:24",2661.000,"cc",28343.748,6,0.100,2038.000,0.200,531.000,0.300,72.000,0.500,17.000,1.000,3.000,5.000,0
"05/09/08","17:04:30",2813.000,"cc",28313.055,6,0.100,2149.000,0.200,566.000,0.300,81.000,0.500,17.000,1.000,0,5.000,0
"05/09/08","17:04:36",2772.000,"cc",28328.604,6,0.100,2097.000,0.200,549.000,0.300,108.000,0.500,14.000,1.000,4.000,5.000,0
"05/09/08","17:04:42",2932.000,"cc",28308.389,6,0.100,2225.000,0.200,597.000,0.300,91.000,0.500,18.000,1.000,1.000,5.000,0
"05/09/08","17:04:48",4001.000,"cc",28317.898,6,0.100,3204.000,0.200,698.000,0.300,76.000,0.500,23.000,1.000,0,5.000,0
"05/09/08","17:04:54",3476.000,"cc",28295.404,6,0.100,2723.000,0.200,655.000,0.300,76.000,0.500,19.000,1.000,3.000,5.000,0
"05/09/08","17:05:00",3748.000,"cc",28277.240,6,0.100,2968.000,0.200,660.000,0.300,96.000,0.500,23.000,1.000,1.000,5.000,0
"05/09/08","17:05:06",4005.000,"cc",28358.844,6,0.100,3214.000,0.200,669.000,0.300,98.000,0.500,24.000,1.000,0,5.000,0
"05/09/08","17:05:12",3492.000,"cc",28404.234,6,0.100,2720.000,0.200,662.000,0.300,89.000,0.500,19.000,1.000,2.000,5.000,0
"05/09/08","17:05:18",3596.000,"cc",28244.545,6,0.100,2856.000,0.200,622.000,0.300,96.000,0.500,22.000,1.000,0,5.000,0
"05/09/08","17:05:24",3307.000,"cc",28272.738,6,0.100,2573.000,0.200,620.000,0.300,82.000,0.500,28.000,1.000,4.000,5.000,0
"05/09/08","17:05:30",4764.000,"cc",28287.631,6,0.100,3810.000,0.200,830.000,0.300,99.000,0.500,23.000,1.000,2.000,5.000,0
"05/09/08","17:05:36",4115.000,"cc",28387.904,6,0.100,3258.000,0.200,734.000,0.300,95.000,0.500,27.000,1.000,1.000,5.000,0
"05/09/08","17:05:42",3052.000,"cc",28297.262,6,0.100,2403.000,0.200,540.000,0.300,86.000,0.500,22.000,1.000,1.000,5.000,0
"05/09/08","17:05:48",3157.000,"cc",28315.961,6,0.100,2444.000,0.200,626.000,0.300,66.000,0.500,19.000,1.000,2.000,5.000,0
"05/09/08","17:05:54",3114.000,"cc",28305.990,6,0.100,2403.000,0.200,606.000,0.300,83.000,0.500,19.000,1.000,3.000,5.000,0
"05/09/08","17:06:00",2893.000,"cc",28319.625,6,0.100,2195.000,0.200,609.000,0.300,75.000,0.500,14.000,1.000,0,5.000,0
"05/09/08","17:06:06",3079.000,"cc",28297.084,6,0.100,2351.000,0.200,612.000,0.300,92.000,0.500,24.000,1.000,0,5.000,0
"05/09/08","17:06:12",3529.000,"cc",28302.231,6,0.100,2728.000,0.200,676.000,0.300,96.000,0.500,27.000,1.000,2.000,5.000,0
"05/09/08","17:06:18",3353.000,"cc",28342.768,6,0.100,2584.000,0.200,644.000,0.300,102.000,0.500,22.000,1.000,1.000,5.000,0
"05/09/08","17:06:24",2800.000,"cc",28289.334,6,0.100,2116.000,0.200,582.000,0.300,78.000,0.500,22.000,1.000,2.000,5.000,0
"05/09/08","17:06:30",2733.000,"cc",28327.617,6,0.100,2068.000,0.200,568.000,0.300,81.000,0.500,14.000,1.000,2.000,5.000,0
"05/09/08","17:06:36",2762.000,"cc",28425.522,6,0.100,2090.000,0.200,567.000,0.300,85.000,0.500,19.000,1.000,1.000,5.000,0
"05/09/08","17:06:42",2800.000,"cc",28344.174,6,0.100,2111.000,0.200,603.000,0.300,57.000,0.500,27.000,1.000,2.000,5.000,0
"05/09/08","17:06:48",2735.000,"cc",28261.836,6,0.100,2084.000,0.200,563.000,0.300,70.000,0.500,18.000,1.000,0,5.000,0
"05/09/08","17:06:54",2807.000,"cc",28274.643,6,0.100,2169.000,0.200,560.000,0.300,62.000,0.500,15.000,1.000,1.000,5.000,0
"05/09/08","17:07:00",2870.000,"cc",28282.654,6,0.100,2192.000,0.200,568.000,0.300,85.000,0.500,23.000,1.000,2.000,5.000,0
"05/09/08","17:07:06",2891.000,"cc",28320.352,6,0.100,2188.000,0.200,580.000,0.300,96.000,0.500,24.000,1.000,3.000,5.000,0
"05/09/08","17:07:12",2840.000,"cc",28322.438,6,0.100,2171.000,0.200,562.000,0.300,82.000,0.500,23.000,1.000,2.000,5.000,0
"05/09/08","17:07:18",2726.000,"cc",28309.752,6,0.100,2086.000,0.200,512.000,0.300,100.000,0.500,26.000,1.000,2.000,5.000,0
"05/09/08","17:07:24",2626.000,"cc",28374.059,6,0.100,1989.000,0.200,536.000,0.300,73.000,0.500,28.000,1.000,0,5.000,0
"05/09/08","17:07:30",2685.000,"cc",28391.606,6,0.100,2068.000,0.200,520.000,0.300,77.000,0.500,19.000,1.000,1.000,5.000,0
"05/09/08","17:07:36",2814.000,"cc",28291.092,6,0.100,2149.000,0.200,573.000,0.300,68.000,0.500,23.000,1.000,1.000,5.000,0
"05/09/08","17:07:42",2708.000,"cc",28259.424,6,0.100,2071.000,0.200,545.000,0.300,78.000,0.500,13.000,1.000,1.000,5.000,0
"05/09/08","17:07:48",2802.000,"cc",28290.982,6,0.100,2111.000,0.200,577.000,0.300,96.000,0.500,17.000,1.000,1.000,5.000,0
"05/09/08","17:07:54",2812.000,"cc",28340.014,6,0.100,2158.000,0.200,566.000,0.300,60.000,0.500,28.000,1.000,0,5.000,0
"05/09/08","17:08:00",3017.000,"cc",28266.141,6,0.100,2302.000,0.200,612.000,0.300,82.000,0.500,20.000,1.000,1.000,5.000,0
"05/09/08","17:08:06",2745.000,"cc",28284.596,6,0.100,2077.000,0.200,541.000,0.300,95.000,0.500,27.000,1.000,5.000,5.000,0
"05/09/08","17:08:12",2814.000,"cc",28341.943,6,0.100,2117.000,0.200,593.000,0.300,84.000,0.500,19.000,1.000,1.000,5.000,0
"05/09/08","17:08:18",2834.000,"cc",28353.877,6,0.100,2160.000,0.200,564.000,0.300,90.000,0.500,17.000,1.000,3.000,5.000,0
"05/09/08","17:08:24",2804.000,"cc",28325.906,6,0.100,2065.000,0.200,618.000,0.300,88.000,0.500,30.000,1.000,3.000,5.000,0
"05/09/08","17:08:30",2788.000,"cc",28321.875,6,0.100,2084.000,0.200,592.000,0.300,95.000,0.500,14.000,1.000,3.000,5.000,0
"05/09/08","17:08:36",2885.000,"cc",28280.606,6,0.100,2185.000,0.200,595.000,0.300,79.000,0.500,26.000,1.000,0,5.000,0
"05/09/08","17:08:42",2692.000,"cc",28330.174,6,0.100,2018.000,0.200,559.000,0.300,95.000,0.500,18.000,1.000,2.000,5.000,0
"05/09/08","17:08:48",2653.000,"cc",28298.940,6,0.100,2030.000,0.200,527.000,0.300,75.000,0.500,18.000,1.000,3.000,5.000,0
"05/09/08","17:08:54",2781.000,"cc",28335.908,6,0.100,2117.000,0.200,574.000,0.300,77.000,0.500,12.000,1.000,1.000,5.000,0
"05/09/08","17:09:00",3094.000,"cc",28371.490,6,0.100,2371.000,0.200,624.000,0.300,83.000,0.500,14.000,1.000,2.000,5.000,0
"05/09/08","17:09:06",2873.000,"cc",28318.574,6,0.100,2132.000,0.200,635.000,0.300,81.000,0.500,24.000,1.000,1.000,5.000,0
"05/09/08","17:09:12",2946.000,"cc",28329.352,6,0.100,2263.000,0.200,580.000,0.300,82.000,0.500,20.000,1.000,1.000,5.000,0
"05/09/08","17:09:18",2772.000,"cc",28334.637,6,0.100,2059.000,0.200,595.000,0.300,93.000,0.500,20.000,1.000,5.000,5.000,0
"05/09/08","17:09:24",2857.000,"cc",28242.041,6,0.100,2127.000,0.200,631.000,0.300,83.000,0.500,14.000,1.000,2.000,5.000,0
"05/09/08","17:09:30",2891.000,"cc",28345.303,6,0.100,2170.000,0.200,605.000,0.300,96.000,0.500,19.000,1.000,1.000,5.000,0
"05/09/08","17:09:36",2917.000,"cc",28335.547,6,0.100,2189.000,0.200,612.000,0.300,88.000,0.500,26.000,1.000,2.000,5.000,0
"05/09/08","17:09:42",2922.000,"cc",28259.873,6,0.100,2248.000,0.200,577.000,0.300,75.000,0.500,20.000,1.000,2.000,5.000,0
"05/09/08","17:09:48",2921.000,"cc",28363.199,6,0.100,2147.000,0.200,664.000,0.300,90.000,0.500,17.000,1.000,3.000,5.000,0
"05/09/08","17:09:54",3125.000,"cc",28296.951,6,0.100,2409.000,0.200,598.000,0.300,93.000,0.500,25.000,1.000,0,5.000,0
"05/09/08","17:10:00",2897.000,"cc",28264.307,6,0.100,2202.000,0.200,582.000,0.300,93.000,0.500,17.000,1.000,3.000,5.000,0
"05/09/08","17:10:06",2869.000,"cc",28336.484,6,0.100,2142.000,0.200,620.000,0.300,86.000,0.500,20.000,1.000,1.000,5.000,0
"05/09/08","17:10:12",2835.000,"cc",28345.506,6,0.100,2195.000,0.200,549.000,0.300,73.000,0.500,16.000,1.000,2.000,5.000,0
"05/09/08","17:10:18",2983.000,"cc",28344.584,6,0.100,2295.000,0.200,604.000,0.300,66.000,0.500,18.000,1.000,0,5.000,0
"05/09/08","17:10:24",2980.000,"cc",28361.109,6,0.100,2257.000,0.200,604.000,0.300,95.000,0.500,24.000,1.000,0,5.000,0
"05/09/08","17:10:30",2856.000,"cc",28315.301,6,0.100,2170.000,0.200,595.000,0.300,79.000,0.500,10.000,1.000,2.000,5.000,0
"05/09/08","17:10:36",2937.000,"cc",28308.113,6,0.100,2215.000,0.200,618.000,0.300,84.000,0.500,18.000,1.000,2.000,5.000,0
"05/09/08","17:10:42",2769.000,"cc",28320.125,6,0.100,2107.000,0.200,540.000,0.300,89.000,0.500,29.000,1.000,4.000,5.000,0
"05/09/08","17:10:48",2953.000,"cc",28291.285,6,0.100,2251.000,0.200,599.000,0.300,81.000,0.500,21.000,1.000,1.000,5.000,0
"05/09/08","17:10:54",2724.000,"cc",28286.303,6,0.100,2059.000,0.200,560.000,0.300,85.000,0.500,20.000,1.000,0,5.000,0
"05/09/08","17:11:00",2904.000,"cc",28288.594,6,0.100,2206.000,0.200,587.000,0.300,88.000,0.500,19.000,1.000,4.000,5.000,0
"05/09/08","17:11:06",3025.000,"cc",28357.006,6,0.100,2282.000,0.200,619.000,0.300,100.000,0.500,20.000,1.000,4.000,5.000,0
"05/09/08","17:11:12",3176.000,"cc",28296.377,6,0.100,2430.000,0.200,622.000,0.300,109.000,0.500,14.000,1.000,1.000,5.000,0
"05/09/08","17:11:18",3618.000,"cc",28275.709,6,0.100,2804.000,0.200,702.000,0.300,86.000,0.500,22.000,1.000,4.000,5.000,0
"05/09/08","17:11:24",3278.000,"cc",28293.063,6,0.100,2513.000,0.200,649.000,0.300,88.000,0.500,26.000,1.000,2.000,5.000,0
"05/09/08","17:11:30",3277.000,"cc",28348.307,6,0.100,2490.000,0.200,663.000,0.300,98.000,0.500,24.000,1.000,2.000,5.000,0
"05/09/08","17:11:36",3239.000,"cc",28360.606,6,0.100,2440.000,0.200,663.000,0.300,100.000,0.500,31.000,1.000,5.000,5.000,0
"05/09/08","17:11:42",4008.000,"cc",28269.383,6,0.100,3090.000,0.200,767.000,0.300,119.000,0.500,32.000,1.000,0,5.000,0
"05/09/08","17:11:48",3610.000,"cc",28312.254,6,0.100,2764.000,0.200,703.000,0.300,117.000,0.500,26.000,1.000,0,5.000,0
"05/09/08","17:11:54",3253.000,"cc",28308.816,6,0.100,2475.000,0.200,665.000,0.300,90.000,0.500,21.000,1.000,2.000,5.000,0
"05/09/08","17:12:00",3266.000,"cc",28312.441,6,0.100,2477.000,0.200,675.000,0.300,95.000,0.500,18.000,1.000,1.000,5.000,0
"05/09/08","17:12:06",3300.000,"cc",28312.826,6,0.100,2481.000,0.200,671.000,0.300,123.000,0.500,20.000,1.000,5.000,5.000,0
"05/09/08","17:12:12",3095.000,"cc",28294.111,6,0.100,2325.000,0.200,644.000,0.300,107.000,0.500,15.000,1.000,4.000,5.000,0
"05/09/08","17:12:18",2839.000,"cc",28367.084,6,0.100,2098.000,0.200,622.000,0.300,90.000,0.500,26.000,1.000,3.000,5.000,0
"05/09/08","17:12:24",3490.000,"cc",28348.432,6,0.100,2685.000,0.200,698.000,0.300,94.000,0.500,12.000,1.000,1.000,5.000,0
"05/09/08","17:12:30",3186.000,"cc",28326.266,6,0.100,2398.000,0.200,674.000,0.300,97.000,0.500,14.000,1.000,3.000,5.000,0
"05/09/08","17:12:36",3149.000,"cc",28268.393,6,0.100,2340.000,0.200,685.000,0.300,100.000,0.500,21.000,1.000,3.000,5.000,0
"05/09/08","17:12:42",3271.000,"cc",28349.434,6,0.100,2409.000,0.200,725.000,0.300,118.000,0.500,15.000,1.000,4.000,5.000,0
"05/09/08","17:12:48",4641.000,"cc",28290.547,6,0.100,3587.000,0.200,878.000,0.300,134.000,0.500,40.000,1.000,2.000,5.000,0
"05/09/08","17:12:54",5251.000,"cc",28270.389,6,0.100,4133.000,0.200,937.000,0.300,147.000,0.500,29.000,1.000,5.000,5.000,0
"05/09/08","17:13:00",4147.000,"cc",28374.246,6,0.100,3257.000,0.200,756.000,0.300,111.000,0.500,22.000,1.000,1.000,5.000,0
"05/09/08","17:13:06",3486.000,"cc",28301.250,6,0.100,2713.000,0.200,662.000,0.300,86.000,0.500,22.000,1.000,3.000,5.000,0
"05/09/08","17:13:12",2977.000,"cc",28337.760,6,0.100,2259.000,0.200,621.000,0.300,81.000,0.500,12.000,1.000,4.000,5.000,0
"05/09/08","17:13:18",2945.000,"cc",28289.441,6,0.100,2214.000,0.200,624.000,0.300,82.000,0.500,23.000,1.000,2.000,5.000,0
"05/09/08","17:13:24",2779.000,"cc",28329.893,6,0.100,2107.000,0.200,563.000,0.300,85.000,0.500,21.000,1.000,3.000,5.000,0
"05/09/08","17:13:30",2844.000,"cc",28336.631,6,0.100,2134.000,0.200,597.000,0.300,87.000,0.500,22.000,1.000,4.000,5.000,0
"05/09/08","17:13:36",2701.000,"cc",28315.547,6,0.100,2031.000,0.200,585.000,0.300,63.000,0.500,19.000,1.000,3.000,5.000,0
"05/09/08","17:13:42",2656.000,"cc",28353.455,6,0.100,1986.000,0.200,566.000,0.300,79.000,0.500,20.000,1.000,5.000,5.000,0
"05/09/08","17:13:48",2735.000,"cc",28346.648,6,0.100,2017.000,0.200,629.000,0.300,69.000,0.500,15.000,1.000,5.000,5.000,0
"05/09/08","17:13:54",2668.000,"cc",28326.791,6,0.100,1991.000,0.200,586.000,0.300,72.000,0.500,15.000,1.000,4.000,5.000,0
"05/09/08","17:14:00",2652.000,"cc",28355.613,6,0.100,2017.000,0.200,552.000,0.300,72.000,0.500,10.000,1.000,1.000,5.000,0
"05/09/08","17:14:06",2668.000,"cc",28320.668,6,0.100,2003.000,0.200,558.000,0.300,91.000,0.500,13.000,1.000,3.000,5.000,0
"05/09/08","17:14:12",2691.000,"cc",28286.654,6,0.100,1964.000,0.200,603.000,0.300,98.000,0.500,22.000,1.000,4.000,5.000,0
"05/09/08","17:14:18",2750.000,"cc",28286.607,6,0.100,2046.000,0.200,607.000,0.300,85.000,0.500,11.000,1.000,1.000,5.000,0
"05/09/08","17:14:24",2577.000,"cc",28285.824,6,0.100,1913.000,0.200,545.000,0.300,96.000,0.500,21.000,1.000,2.000,5.000,0
"05/09/08","17:14:30",2775.000,"cc",28296.590,6,0.100,2072.000,0.200,600.000,0.300,80.000,0.500,18.000,1.000,5.000,5.000,0
"05/09/08","17:14:36",3102.000,"cc",28334.551,6,0.100,2333.000,0.200,653.000,0.300,95.000,0.500,19.000,1.000,2.000,5.000,0
"05/09/08","17:14:42",2786.000,"cc",28293.115,6,0.100,2114.000,0.200,554.000,0.300,90.000,0.500,24.000,1.000,4.000,5.000,0
"05/09/08","17:14:48",2707.000,"cc",28353.945,6,0.100,2012.000,0.200,587.000,0.300,89.000,0.500,17.000,1.000,2.000,5.000,0
"05/09/08","17:14:54",2623.000,"cc",28310.797,6,0.100,1961.000,0.200,556.000,0.300,82.000,0.500,22.000,1.000,2.000,5.000,0
"05/09/08","17:15:00",2637.000,"cc",28284.811,6,0.100,1980.000,0.200,578.000,0.300,61.000,0.500,16.000,1.000,2.000,5.000,0
"05/09/08","17:15:06",2647.000,"cc",28322.240,6,0.100,2003.000,0.200,572.000,0.300,63.000,0.500,7.000,1.000,2.000,5.000,0
"05/09/08","17:15:12",2696.000,"cc",28277.213,6,0.100,2013.000,0.200,577.000,0.300,88.000,0.500,17.000,1.000,1.000,5.000,0
"05/09/08","17:15:18",2806.000,"cc",28399.811,6,0.100,2042.000,0.200,619.000,0.300,109.000,0.500,33.000,1.000,3.000,5.000,0
"05/09/08","17:15:24",2798.000,"cc",28347.781,6,0.100,2083.000,0.200,603.000,0.300,87.000,0.500,22.000,1.000,3.000,5.000,0
"05/09/08","17:15:30",2809.000,"cc",28297.211,6,0.100,2141.000,0.200,561.000,0.300,82.000,0.500,23.000,1.000,2.000,5.000,0
"05/09/08","17:15:36",2705.000,"cc",28348.711,6,0.100,2056.000,0.200,549.000,0.300,77.000,0.500,23.000,1.000,0,5.000,0
"05/09/08","17:15:42",2572.000,"cc",28313.080,6,0.100,1939.000,0.200,527.000,0.300,77.000,0.500,25.000,1.000,4.000,5.000,0
"05/09/08","17:15:48",2679.000,"cc",28316.285,6,0.100,1990.000,0.200,586.000,0.300,76.000,0.500,22.000,1.000,5.000,5.000,0
"05/09/08","17:15:54",2630.000,"cc",28293.402,6,0.100,1959.000,0.200,567.000,0.300,86.000,0.500,17.000,1.000,1.000,5.000,0
"05/09/08","17:16:00",2678.000,"cc",28336.065,6,0.100,2017.000,0.200,559.000,0.300,78.000,0.500,23.000,1.000,1.000,5.000,0
"05/09/08","17:16:06",2718.000,"cc",28278.619,6,0.100,2048.000,0.200,557.000,0.300,86.000,0.500,25.000,1.000,2.000,5.000,0
"05/09/08","17:16:12",3012.000,"cc",28325.889,6,0.100,2284.000,0.200,625.000,0.300,82.000,0.500,19.000,1.000,2.000,5.000,0
"05/09/08","17:16:18",2858.000,"cc",28331.768,6,0.100,2128.000,0.200,597.000,0.300,102.000,0.500,28.000,1.000,3.000,5.000,0
"05/09/08","17:16:24",2788.000,"cc",28321.732,6,0.100,2088.000,0.200,592.000,0.300,85.000,0.500,19.000,1.000,4.000,5.000,0
"05/09/08","17:16:30",2716.000,"cc",28315.834,6,0.100,2025.000,0.200,581.000,0.300,85.000,0.500,19.000,1.000,6.000,5.000,0
"05/09/08","17:16:36",2713.000,"cc",28345.463,6,0.100,2034.000,0.200,574.000,0.300,86.000,0.500,16.000,1.000,3.000,5.000,0
"05/09/08","17:16:42",2780.000,"cc",28358.065,6,0.100,2081.000,0.200,596.000,0.300,83.000,0.500,17.000,1.000,3.000,5.000,0
"05/09/08","17:16:48",2931.000,"cc",28282.068,6,0.100,2228.000,0.200,604.000,0.300,77.000,0.500,19.000,1.000,3.000,5.000,0
"05/09/08","17:16:54",3555.000,"cc",28336.074,6,0.100,2724.000,0.200,717.000,0.300,98.000,0.500,13.000,1.000,3.000,5.000,0
"05/09/08","17:17:00",2878.000,"cc",28269.315,6,0.100,2212.000,0.200,568.000,0.300,73.000,0.500,20.000,1.000,5.000,5.000,0
"05/09/08","17:17:06",2881.000,"cc",28316.426,6,0.100,2156.000,0.200,609.000,0.300,89.000,0.500,25.000,1.000,2.000,5.000,0
"05/09/08","17:17:12",2838.000,"cc",28353.686,6,0.100,2131.000,0.200,598.000,0.300,81.000,0.500,23.000,1.000,5.000,5.000,0
"05/09/08","17:17:18",2671.000,"cc",28310.147,6,0.100,1992.000,0.200,568.000,0.300,96.000,0.500,14.000,1.000,1.000,5.000,0
"05/09/08","17:17:24",2863.000,"cc",28318.158,6,0.100,2158.000,0.200,579.000,0.300,96.000,0.500,23.000,1.000,7.000,5.000,0
"05/09/08","17:17:30",2816.000,"cc",28356.527,6,0.100,2101.000,0.200,604.000,0.300,94.000,0.500,16.000,1.000,1.000,5.000,0
"05/09/08","17:17:36",2939.000,"cc",28322.807,6,0.100,2199.000,0.200,623.000,0.300,90.000,0.500,24.000,1.000,3.000,5.000,0
"05/09/08","17:17:42",3233.000,"cc",28287.295,6,0.100,2518.000,0.200,610.000,0.300,80.000,0.500,23.000,1.000,2.000,5.000,0
"05/09/08","17:17:48",2650.000,"cc",28329.707,6,0.100,1998.000,0.200,552.000,0.300,80.000,0.500,18.000,1.000,2.000,5.000,0
"05/09/08","17:17:54",2867.000,"cc",28328.979,6,0.100,2175.000,0.200,580.000,0.300,85.000,0.500,24.000,1.000,3.000,5.000,0
"05/09/08","17:18:00",2704.000,"cc",28301.590,6,0.100,2067.000,0.200,561.000,0.300,57.000,0.500,16.000,1.000,3.000,5.000,0
"05/09/08","17:18:06",2822.000,"cc",28307.566,6,0.100,2108.000,0.200,587.000,0.300,102.000,0.500,23.000,1.000,2.000,5.000,0
"05/09/08","17:18:12",2694.000,"cc",28365.193,6,0.100,2017.000,0.200,575.000,0.300,74.000,0.500,24.000,1.000,4.000,5.000,0
"05/09/08","17:18:18",3707.000,"cc",28307.350,6,0.100,2831.000,0.200,752.000,0.300,102.000,0.500,16.000,1.000,6.000,5.000,0